Regional Weather Roundup
Issued by NWS

Home | Current Version | Previous Version | Graphics & Text | Print | Product List | Glossary On
Versions: 1 2 3 4 5 6 7 8 9 10 11 12 13 14 15 16 17 18 19 20 21 22 23 24 25 26 27 28 29 30 31 32 33 34 35 36 37 38 39 40 41 42 43 44 45 46 47 48 49 50
000
ASUS43 KMKX 230321
RWRWI

WISCONSIN REGIONAL WEATHER ROUNDUP
NATIONAL WEATHER SERVICE MILWAUKEE/SULLIVAN WI
1000 PM CDT FRI MAY 22 2015

NOTE: "FAIR" INDICATES FEW OR NO CLOUDS BELOW 12,000 FEET WITH NO
SIGNIFICANT WEATHER AND/OR OBSTRUCTIONS TO VISIBILITY.

WIZ001-002-006>008-014>016-023>028-230400-
NORTHWEST WISCONSIN

CITY           SKY/WX    TMP DP  RH WIND       PRES   REMARKS
SUPERIOR ARPT  CLEAR     40  36  84 N3        30.20R
ASHLAND        CLEAR     54  35  48 S6        30.18R
HAYWARD        CLEAR     52  40  63 CALM      30.21R
SIREN          PTCLDY    53  40  61 CALM      30.21R
CUMBERLAND     FAIR      55  41  58 SW3       30.22R
RICE LAKE      FAIR      57  44  61 CALM      30.23R
CHETEK         FAIR      52  44  73 CALM      30.22R
LADYSMITH      CLEAR     51  44  77 CALM      30.23S
EAU CLAIRE     MOCLDY    54  39  57 CALM      30.21R
MENOMONIE      MOCLDY    61  37  39 CALM      30.21S
NEW RICHMOND   MOCLDY    60  38  44 SE3       30.22R
OSCEOLA        PTCLDY    55  44  67 CALM      30.23R
$$

WIZ003>005-009-010-017-018-230400-
NORTH CENTRAL WISCONSIN

CITY           SKY/WX    TMP DP  RH WIND       PRES   REMARKS
MANITOWISH WTR CLEAR     44  37  75 CALM      30.22R
ARBOR VITAE    FAIR      52  36  55 CALM      30.23R
WOODRUFF       FAIR      52  36  55 CALM      30.23R
RHINELANDER    CLEAR     46  33  60 CALM      30.23R
EAGLE RIVER    CLEAR     42  30  62 CALM      30.23R
LAND O LAKES   CLEAR     43  32  67 CALM      30.23S
PHILLIPS       PTCLDY    49  40  72 CALM      30.22R
TOMAHAWK       CLEAR     45  36  70 CALM      30.24R
MEDFORD        FAIR      49  38  65 CALM      30.24R
MERRILL        CLEAR     49  38  67 CALM      30.24R
$$

WIZ029-030-035-036-043>047-230400-
CENTRAL WISCONSIN

CITY           SKY/WX    TMP DP  RH WIND       PRES   REMARKS
WAUSAU         CLEAR     57  41  55 CALM      30.22R
MOSINEE        CLEAR     54  39  58 S3        30.24R
MARSHFIELD     PTCLDY    57  37  47 CALM      30.24R
STEVENS POINT  PTCLDY    50  39  65 CALM      30.25R
WAUPACA        PTCLDY    57  40  53 SE7       30.25R
WAUTOMA        MOCLDY    53  39  59 CALM      30.25R
WISC RAPIDS    LGT RAIN  54  35  48 CALM      30.24R
CAMP DOUGLAS   MOCLDY    50  49  93 CALM      30.22R
$$

WIZ011>013-019>022-031-037>040-048>050-230400-
NORTHEAST WISCONSIN

CITY           SKY/WX    TMP DP  RH WIND       PRES   REMARKS
ANTIGO         CLEAR     48  36  61 E8        30.25R
SHAWANO        CLEAR     56  35  44 S3        30.24R
OCONTO         CLEAR     47  33  59 SE5       30.26R
STURGEON BAY   CLEAR     45  21  39 S8        30.30R
GREEN BAY      CLEAR     53  29  39 S8        30.26R
MANITOWOC      PTCLDY    49  25  39 S6        30.28R
APPLETON       PTCLDY    54  34  47 S10       30.26R
CLINTONVILLE   PTCLDY    55  36  47 S6        30.24R
OSHKOSH        MOCLDY    51  29  42 S9        30.26R
$$

WIZ032>034-041-042-053>061-230400-
SOUTHWEST WISCONSIN

CITY           SKY/WX    TMP DP  RH WIND       PRES   REMARKS
LA CROSSE      MOCLDY    62  43  49 CALM      30.21R
SPARTA         MOCLDY    51  42  71 CALM      30.23R
VIROQUA        MOCLDY    61  34  37 E5        30.23R
BOSCOBEL       CLOUDY    55  45  68 CALM      30.22R
PRAIRIE DU CHI CLOUDY    60  47  61 CALM      30.21S
PLATTEVILLE    CLOUDY    65  38  37 SE5       30.23R
$$

WIZ056-057-062-063-064-067-068-230400-
SOUTH CENTRAL WISCONSIN

CITY           SKY/WX    TMP DP  RH WIND       PRES   REMARKS
REEDSBURG      MOCLDY    54  44  69 CALM      30.23R
BARABOO/DELLS  MOCLDY    52  40  63 CALM      30.23R
LONE ROCK      CLOUDY    57  47  69 NE3       30.22R
MINERAL POINT  CLOUDY    66  32  28 CALM      30.23S
MADISON        CLOUDY    60  37  42 SE12      30.25R
MIDDLETON      CLOUDY    62  35  36 SE10      30.25R
WATERTOWN      MOCLDY    52  31  44 SE8       30.26S
MONROE         CLOUDY    59  43  55 SE9       30.25R
JANESVILLE     CLOUDY    55  32  41 E6        30.27R
$$

WIZ051-052-058>065-066-070>072-230400-
SOUTHEAST WISCONSIN

CITY           SKY/WX    TMP DP  RH WIND       PRES   REMARKS
MILWAUKEE      MOCLDY    48  29  47 SE6       30.29S
WAUKESHA       MOCLDY    46  27  46 SE5       30.30S
MILWAUKEE/TIMM MOCLDY    50  21  32 CALM      30.30S
RACINE         MOCLDY    50  28  42 SE5       30.31R
BURLINGTON     CLOUDY    48  26  43 SE5       30.29S
KENOSHA        MOCLDY    46  31  55 E7        30.30R
FOND DU LAC    MOCLDY    52  24  33 S8        30.27R
SHEBOYGAN      PTCLDY    44  28  53 SW6       30.28S
WEST BEND      MOCLDY    46  23  39 CALM      30.28S
JUNEAU         MOCLDY    52  30  42 SE9       30.28R
$$

LSZ147-162-230400-
LAKE SUPERIOR

STATION/POSITION TIME  TEMP    WIND        PRES    WAVE
                       AIR SEA DIR/SP/G            HT/PER
                 (UTC) (F)     (DEG/KT/KT) (MB)    (FT/S)
W MID LAKE BUOY  0250   38 37   30/  6/  6   N/A     0
DEVILS ISLAND    0300   41      30/  5/  7   N/A
PORT WING        0200   42      20/  3/  5   N/A
SAXON HARBOR     0200   57     200/  4/  5   N/A
$$

LMZ867-665-643>646-230400-
LAKE MICHIGAN

STATION/POSITION TIME  TEMP    WIND        PRES    WAVE
                       AIR SEA DIR/SP/G            HT/PER
                 (UTC) (F)     (DEG/KT/KT) (MB)    (FT/S)
CHAMBERS ISLAND  0200   47     130/  3/  5   N/A
N MID LAKE BUOY  0250   42 36  200/  6/  6   N/A     0
NORTHPORT PIER   0200   47     170/  4/  7   N/A
SISTER BAY       0247   45        CALM       N/A
KEWAUNEE LAKESHO 0200   46     170/  7/  9   N/A
SHEBOYGAN LAKESH 0300   49     210/  9/ 10   N/A
PORT WASHINGTON  0240   48     210/  4/  6   N/A
ATWATER BUOY     0300   47 45  170/  6/  6   N/A
MILWAUKEE LAKESH 0300   50     170/  3/  4   N/A
S MID LAKE BUOY  0250   46 38   90/  8/  8   N/A     0
KENOSHA   LAKESH 0300   49     140/  6/  7   N/A
$$

TC  - TEMPERATURE IN CELSIUS
VSB - VISIBILITY IN STATUTE MILES
WCI - WIND CHILL INDEX
HX  - HEAT INDEX



USA.gov is the U.S. government's official web portal to all federal, state and local government web resources and services.